Flag for Canada Weather past 2 weeks in New Westminster, British Columbia, Canada

Now
32 °F

Chilly.


Feels Like: 32 °F
Forecast: 35 / 46 °F
Wind: No wind

Location: P. Meadows Coastal Station

Current Time: Jan 31, 2015 at 5:46:32 AM

Latest Report: Jan 31, 2015 at 5:00 AM


Visibility: N/A

Pressure: 30.28 "Hg

Humidity: 100%

Dew point: 32 °F

Location of New WestminsterLocation

Historic Weather in New Westminster — Graph

°F

New Westminster temperature yesterday

Maximum temperature yesterday: 53 °F (at 3:00 PM)
Minimum temperature yesterday: 30 °F (at 5:00 AM)
Average temperature yesterday: 39 °F

Past Weeks' High & Low Weather Summary

 TemperatureHumidityPressure
High61 °F (Jan 26, 3:00 PM)100% (Jan 17, 12:00 AM)30.47 "Hg (Jan 17, 12:00 AM)
Low29 °F (Jan 21, 6:00 AM)56% (Jan 26, 3:00 PM)29.47 "Hg (Jan 18, 1:00 AM)
Average44 °F92%30.19 "Hg
* Reported Jan 16 4:00 AM — Jan 31 4:00 AM, New Westminster, Weather by CustomWeather, © 2014

Note: Actual official high and low records may vary slightly from our data, if they occured in-between our weather recording intervals... More about our weather records

Advertising

New Westminster weather history for previous 24 hours

 ConditionsComfort  
Time TempWeatherWind HumidityBarometerVisibility
4:00 AM
Jan 31
33 °FChilly.1 mph100%30.29 "HgN/A
3:00 AM34 °FChilly.1 mph100%30.28 "HgN/A
1:00 AM35 °FChilly.1 mph100%30.28 "HgN/A
12:00 AM34 °FChilly.No wind100%30.28 "HgN/A
11:00 PM
Jan 30
34 °FChilly.No wind100%30.27 "HgN/A
10:00 PM34 °FChilly.No wind100%30.26 "HgN/A
8:00 PM38 °FChilly.1 mph94%30.26 "HgN/A
7:00 PM41 °FQuite cool.3 mph91%30.26 "HgN/A
5:00 PM47 °FCool.2 mph78%30.26 "HgN/A
4:00 PM51 °FCool.2 mph63%30.26 "HgN/A
3:00 PM53 °FCool.1 mph65%30.27 "HgN/A
2:00 PM50 °FCool.2 mph67%30.27 "HgN/A
1:00 PM49 °FCool.1 mph71%30.29 "HgN/A
12:00 PM45 °FCool.No wind77%30.31 "HgN/A
11:00 AM42 °FQuite cool.1 mph84%30.32 "HgN/A
10:00 AM37 °FChilly.No wind96%30.32 "HgN/A
9:00 AM32 °FChilly.1 mph100%30.33 "HgN/A
8:00 AM30 °FChilly.1 mph100%30.33 "HgN/A
5:00 AM30 °FChilly.1 mph100%30.33 "HgN/A
Weather by CustomWeather, © 2014

See weather overviewHow to use our weather pages